Regional Weather Roundup
Issued by NWS Sterling, VA

Home | Current Version | Previous Version | Text Only | Print | Product List | Glossary Off
Versions: 1 2 3 4 5 6 7 8 9 10 11 12 13 14 15 16 17 18 19 20 21 22 23 24 25 26 27 28 29 30 31 32 33 34 35 36 37 38 39 40 41 42 43 44 45 46 47 48 49 50

000
ASUS41 KLWX 041210
RWRLWX

REGIONAL WEATHER ROUNDUP
NATIONAL WEATHER SERVICE BALTIMORE MD/WASHINGTON DC
700 AM EST SUN DEC 04 2016

Note: "FAIR" indicates few or no clouds below 12,000 feet
with no significant weather and/or obstructions to visibility.
 TC=TEMPERATURE CELSIUS

 * =Non NWS site. Station does not report precipitation (e.g. rain,
    snow, etc.), thunder, or fog.

DCZ001-MDZ009-015-VAZ040>042-051-053>054-041300-
WASHINGTON METRO

CITY           SKY/WX    TMP DP  RH WIND       PRES   REMARKS
WASHINGTON NAT CLOUDY    38  28  67 VRB5      30.29R
DULLES         CLOUDY    34  26  72 NW3       30.29R
ANDREWS AFB    CLOUDY    37  27  66 NW9       30.26S
FT BELVOIR     CLOUDY    36  27  68 NW3       30.29R
QUANTICO       MOCLDY    36  27  69 NW3       30.31R
COLLEGE PARK*  CLOUDY    34  27  75 CALM      30.28S
LEESBURG*      CLOUDY    36  32  87 MISG      30.29S
MANASSAS*      CLEAR     28  27  93 CALM      30.30R
GAITHERSBURG*  CLOUDY    34  25  69 W3        30.31S

$$

MDZ006>007-011-014-041300-
BALTIMORE METRO

CITY           SKY/WX    TMP DP  RH WIND       PRES   REMARKS
BWI AIRPORT    CLOUDY    36  29  75 W6        30.27S
MD SCIENCE CTR   N/A     41  27  57 MISG      30.28R
MARTIN STATE   MOCLDY    37  32  81 W7        30.29S
ANNAPOLIS      PTCLDY    40  30  67 NW6       30.27S
FORT MEADE*    CLOUDY    32  28  86 CALM      30.29F

$$

MDZ012-015-019>023-041300-
MARYLAND EASTERN SHORE

CITY           SKY/WX    TMP DP  RH WIND       PRES   REMARKS
OCEAN CITY     CLOUDY    35  30  82 NW6       30.27R
SALISBURY      CLOUDY    35  30  82 NW3       30.27R
BAY BRIDGE AP* PTCLDY    39  30  70 NW9       30.27S
CAMBRIDGE*     PTCLDY    37  32  81 NW6       30.26S
EASTON*        PTCLDY    37  30  75 NW7       30.31R

$$

MDZ017>025-041300-
SOUTHERN MARYLAND

CITY           SKY/WX    TMP DP  RH WIND       PRES   REMARKS
PATUXENT RIVER CLOUDY    38  29  70 W7        30.28R
ST INIGOES     CLOUDY    40  29  64 VRB5      30.28R
LEONARDTOWN*   CLOUDY    34  28  80 W5        30.29S

$$

MDZ003>005-041300-
NORTH CENTRAL MARYLAND

CITY           SKY/WX    TMP DP  RH WIND       PRES   REMARKS
FREDERICK*     CLEAR     32  28  86 S3        30.30F
HAGERSTOWN APT CLOUDY    36  26  67 SW6       30.27R
WESTMINSTER*   CLOUDY    34  28  80 W3        30.24F

$$

MDZ501>502-041300-
WESTERN MARYLAND

CITY           SKY/WX    TMP DP  RH WIND       PRES   REMARKS
OAKLAND*       PTCLDY    25  23  93 E5        30.17F
CUMBERLAND*    NOT AVBL

$$

VAZ025>031-041300-
SHENANDOAH VALLEY

CITY           SKY/WX    TMP DP  RH WIND       PRES   REMARKS
WINCHESTER*    CLOUDY    32  27  80 CALM      30.28R
FRONT ROYAL*   FAIR      32  28  86 S6        30.27S
LURAY*         FAIR      30  30 100 CALM      30.28R
NEW MARKET*    FAIR      28  25  91 CALM      30.27S
STAUNTON*      CLOUDY    28  27  94 CALM      30.29R
WAYNESBORO*    FAIR      28  26  91 CALM      30.26S

$$

WVZ021-048>050-054>055-041300-
EASTERN WEST VIRGINIA PANHANDLE

CITY           SKY/WX    TMP DP  RH WIND       PRES   REMARKS
MARTINSBURG    PTCLDY    30  24  78 S3        30.27F
PETERSBURG*    CLOUDY    30  28  93 CALM      30.30S

$$

VAZ036>039-050-041300-
CENTRAL FOOTHILLS

CITY           SKY/WX    TMP DP  RH WIND       PRES   REMARKS
CHARLOTTESVILL CLOUDY    32  27  81 CALM      30.29S
CULPEPER*      PTCLDY    30  28  91 CALM      30.30S
ORANGE*          N/A     34  30  86 CALM      30.29F
GORDONSVILLE*  FAIR      31  29  92 CALM      30.28S
WARRENTON*     FAIR      29  25  84 CALM      30.28S

$$

VAZ055>057-041300-
NORTH AND CENTRAL PIEDMONT

CITY           SKY/WX    TMP DP  RH WIND       PRES   REMARKS
FREDERICKSBRG* CLOUDY    34  30  88 CALM      30.29R
STAFFORD*      CLOUDY    32  28  84 CALM      30.33S

$$

NCZ024-NYZ072-PAZ021-071-VAZ022-071-041300-
OTHER REGIONAL OBSERVATIONS

CITY           SKY/WX    TMP DP  RH WIND       PRES   REMARKS
NEW YORK CITY  PTCLDY    39  21  48 NW12G17   30.24R
PHILADELPHIA   CLOUDY    41  25  53 NW3       30.25R
PITTSBURGH     CLOUDY    34  27  75 CALM      30.23F
ROANOKE        CLOUDY    36  28  73 SE8       30.29R
RALEIGH        CLOUDY    42  30  62 E7        30.29R

$$

ANZ530>537-041300-
MARINE OBSERVATIONS

STATION/POSITION TIME  TEMP    WIND        PRES
                       AIR SEA DIR/SP/G
                 (UTC) (F)     (DEG/KT/KT) (MB)
THOMAS PT LIGHT  1200   39 49  310/ 12/ 13   N/A
BALT KEY BRIDGE  1142   40     290/ 10/ 12 1025.1R
COVE POINT       1142   40     340/  9/ 12 1025.6R
LEWISETTA        1142   41 48  320/  7/  9 1025.0R
SOLOMONS ISLAND  1142   40 51  320/  8/ 11   N/A
PINEY POINT      1148          360/ 10/ 12   N/A

$$




USA.gov is the U.S. government's official web portal to all federal, state and local government web resources and services.